Location: Rowland
(34.5359°N, 79.2929°W)
Time: 19:37:34
(UTC+00:00)

Transit 4A - Pass Details

Date: 11 October 2022
Orbit: 871 x 972 km, 66.8° (Epoch: 01 December)

Event Time Altitude Azimuth Distance (km) Brightness Sun altitude
Rises 10:11:20 0° 338° (NNW) 3,475 10.7 -14.8°
Reaches altitude 10° 10:13:54 10° 344° (NNW) 2,528 10.0 -14.3°
Maximum altitude 10:19:35 52° 60° (ENE) 1,072 8.6 -13.1°
Drops below altitude 10° 10:25:13 10° 136° (SE) 2,517 10.8 -12.0°
Sets 10:27:46 0° 141° (SE) 3,460 11.5 -11.5°
